Tracking 20369 objects as of 18-Feb-2020
HD Live streaming from Space Station
objects crossing your sky now

COSMOS 1053

Track COSMOS 1053 now!
10-day predictions
COSMOS 1053 is classified as:


NORAD ID: 11130
Int'l Code: 1978-109C
Perigee: 1,436.8 km
Apogee: 1,494.3 km
Inclination: 74.0 °
Period: 115.1 minutes
Semi major axis: 7836 km
RCS: 0.7062 m2 (medium)
Launch date: December 5, 1978
Source: Commonwealth of Independent States (former USSR) (CIS)
Launch site: PLESETSK MISSILE AND SPACE COMPLEX (PKMTR)
aabbcc
Your satellite tracking list
Your tracking list is empty




NASA's NSSDC Master Catalog

Two Line Element Set (TLE):
1 11130U 78109C   20048.81982869 -.00000022 +00000-0 -38436-4 0  9990
2 11130 074.0152 090.4552 0036711 143.5598 266.2130 12.51456590882348
Source of the keplerian elements: AFSPC